Location: Rounton
(54.4000°N, 1.3500°W)
Time: 15:13:17
(UTC+01:00)

IRIDIUM 33 DEB - Visible Passes

Search period start: 03 July 2022 00:00
Search period end: 13 July 2022 00:00
Orbit: 705 x 715 km, 86.3° (Epoch: 02 July)

Date Brightness Start Highest point End Pass type
(mag) Time Alt. Az. Time Alt. Az. Time Alt. Az.
04 Jul ? 02:57:29 10° NNE 03:01:10 21° ENE 03:04:49 10° ESE visible
06 Jul ? 02:49:33 10° NNE 02:53:21 22° ENE 02:57:07 10° ESE visible
07 Jul ? 03:34:43 10° N 03:39:30 52° E 03:44:16 10° SSE visible
08 Jul ? 02:41:36 10° NNE 02:45:30 23° ENE 02:49:23 10° ESE visible
09 Jul ? 01:50:06 10° NE 01:51:07 11° ENE 01:52:10 10° ENE visible
09 Jul ? 03:26:48 10° N 03:31:37 56° E 03:36:24 10° SSE visible
10 Jul ? 02:33:37 10° NNE 02:37:38 25° ENE 02:41:37 10° SE visible
11 Jul ? 01:41:45 10° NE 01:43:16 11° ENE 01:44:47 10° ENE visible
11 Jul ? 03:18:52 10° N 03:23:43 59° E 03:28:32 10° SSE visible
12 Jul ? 02:25:38 10° NNE 02:29:44 26° ENE 02:33:50 10° SE visible
